Location: Mentone
(34.5413°N, 85.5351°W)
Time: 08:18:00
(UTC-05:00)

S-56A Canister/Altair - Visible Passes

Search period start: 01 November 2014 00:00
Search period end: 10 November 2014 23:00
Orbit: 632 x 2503 km, 38.9° (Epoch: 29 October)

Date Brightness Start Highest point End Pass type
(mag) Time Alt. Az. Time Alt. Az. Time Alt. Az.
01 Nov 10.0 19:02:03 10° W 19:17:03 77° N 19:26:54 26° ENE visible
01 Nov 9.7 21:09:45 10° WNW 21:24:21 78° NNW 21:24:21 78° NNW visible
01 Nov 11.2 23:17:38 10° WNW 23:21:47 22° WNW 23:21:47 22° WNW visible
02 Nov 10.1 17:29:05 10° W 17:43:44 78° N 17:56:15 17° ENE visible
02 Nov 9.6 19:36:31 10° WNW 19:51:55 78° N 19:53:42 71° ENE visible
02 Nov 10.8 21:44:16 10° WNW 21:51:09 33° WNW 21:51:09 33° WNW visible
03 Nov 10.1 16:56:14 10° WSW 17:10:25 81° NNW 17:25:26 10° ENE visible
03 Nov 9.8 19:03:21 10° WNW 19:18:40 77° N 19:23:05 53° E visible
03 Nov 10.4 21:10:56 10° WNW 21:20:32 46° W 21:20:32 46° W visible
04 Nov 9.9 18:30:15 10° W 18:45:22 76° N 18:52:30 38° E visible
04 Nov 10.0 20:37:40 10° WNW 20:49:57 64° W 20:49:57 64° W visible
04 Nov 11.6 22:46:03 10° WNW 22:47:25 13° W 22:47:25 13° W visible
05 Nov 10.0 17:57:15 10° W 18:12:02 75° N 18:21:58 26° E visible
05 Nov 9.7 20:04:27 10° WNW 20:19:25 83° SW 20:19:25 83° SW visible
05 Nov 11.2 22:12:28 10° WNW 22:16:53 21° W 22:16:53 21° W visible
06 Nov 10.1 17:24:20 10° W 17:38:41 75° N 17:51:29 17° E visible
06 Nov 9.6 19:31:18 10° WNW 19:46:40 88° SSW 19:48:56 71° ESE visible
06 Nov 10.9 21:38:59 10° WNW 21:46:24 31° W 21:46:24 31° W visible
07 Nov 10.1 16:51:31 10° W 17:05:21 74° N 17:20:30 10° E visible
07 Nov 9.8 18:58:14 10° WNW 19:13:28 88° NNE 19:18:32 51° ESE visible
07 Nov 10.5 21:05:36 10° WNW 21:16:00 43° WSW 21:16:00 43° WSW visible
08 Nov 9.9 18:25:15 10° WNW 18:40:12 85° NNE 18:48:12 36° ESE visible
08 Nov 10.1 20:32:19 10° WNW 20:45:41 55° SW 20:45:41 55° SW visible
08 Nov 11.7 22:42:40 10° W 22:43:10 11° W 22:43:10 11° W visible
09 Nov 10.0 17:52:21 10° WNW 18:06:55 82° NNE 18:17:59 23° ESE visible
09 Nov 10.0 19:59:08 10° WNW 20:13:57 62° SW 20:15:28 60° SSW visible
09 Nov 11.4 22:08:30 10° W 22:12:58 18° W 22:12:58 18° W visible
10 Nov 10.0 17:19:33 10° WNW 17:33:37 80° NNE 17:47:53 13° E visible
10 Nov 10.0 19:26:02 10° WNW 19:40:54 67° SSW 19:45:23 50° SSE visible
10 Nov 11.1 21:34:38 10° W 21:42:53 25° WSW 21:42:53 25° WSW visible
